Погода в Млыновцах

Украина / Тернопольская область     49°52′16″N   25°38′43″E
темп.,
°C
ветер,
м/с
пор.,
м/с
влажн.,
%
обл.,
%
осадки,
мм/ч
давл.,
гПа
погр.,
м
15 апреля, чт
чт1500:00+2зсз4696100 0.5 1016301
03:00+1зсз4796100 1.9 1016298
06:00+1зсз4796100 0.3 1016336
09:000зсз47100100 3.9 1017235
12:00+1зсз47100100 1.9 1017283
15:00+2зсз58100100 2.0 1017401
18:00+2зсз6996100 0.0 1017514
21:00+1зсз61098100 0.0 1017499
16 апреля, пт
пт1600:00+1зсз61097100 0.0 1016482
03:00+1зсз61197100 0.0 1016512
06:000з61197100 0.1 1016534
09:00+1з61194100 0.1 1016576
12:00+2з6992100 0.0 1017605
15:00+2з71192100 0.0 1017666
18:00+3з61295100 0.0 1018677
21:00+2з61396100 0.0 1019664
17 апреля, сб
сб1700:00+2з51397100 0.0 1019653
03:00+2з61296100 0.0 1019550
06:00+2зюз41197100 0.0 1020609
09:00+4зюз598464 0.0 1020579
12:00+7зюз457098 0.0 10201053
15:00+8сз226497 0.1 1020817
18:00+7всв3474100 0.1 1020246
21:00+6всв358297 0.1 1020115
18 апреля, вс
вс1800:00+6всв4781100 0.0 1021175
03:00+6в4982100 0.0 1020232
06:00+4вюв3989100 0.0 1020231
09:00+8юв597363 0.0 1020580
12:00+11юв795599 0.1 10201864
15:00+11вюв7954100 0.2 10191848
18:00+10юв6962100 0.1 10191488
21:00+8юв41068100 0.1 1019674
19 апреля, пн
пн1900:00+8вюв3776100 0.3 1019552
03:00+7вюв4887100 0.6 1018938
06:00+6всв51094100 1.3 1016889
09:00+7в5993100 2.8 1015668
12:00+7в5890100 0.6 1014810
15:00+7в4790100 0.9 1012638
18:00+7в2394100 1.1 1010169
21:00+6всв2397100 1.3 1009123